Weather reports worldwide

Advertisment
Chemnitz, Germany (10577): temperature & dewpoint: 01.08.2020 02:00:00 - 07.08.2020 02:00:00 (CEST)Chemnitz, Germany (10577): temperature 5cm & temperature -5cm: 01.08.2020 02:00:00 - 07.08.2020 02:00:00 (CEST)Chemnitz, Germany (10577): temperature -20cm & temperature -100cm: 01.08.2020 02:00:00 - 07.08.2020 02:00:00 (CEST)Chemnitz, Germany (10577): wind speed & gusts: 01.08.2020 02:00:00 - 07.08.2020 02:00:00 (CEST)Chemnitz, Germany (10577): wind direction: 01.08.2020 02:00:00 - 07.08.2020 02:00:00 (CEST)Chemnitz, Germany (10577): reduced air pressure: 01.08.2020 02:00:00 - 07.08.2020 02:00:00 (CEST)Chemnitz, Germany (10577): visibility: 01.08.2020 02:00:00 - 07.08.2020 02:00:00 (CEST)Chemnitz, Germany (10577): sunshine duration: 01.08.2020 02:00:00 - 07.08.2020 02:00:00 (CEST)Chemnitz, Germany (10577): precipitation: 01.08.2020 02:00:00 - 07.08.2020 02:00:00 (CEST)
Date & Time tt [°C] td [°C] tt 5cm [°C] tt -5cm [°C] tt -20cm [°C] tt -100cm [°C] ff [km/h] ff [kn] fx [km/h] fx [kn] dd ppp [hPa] vv [km] sd [min] rr [mm]
07.08.2020 02:00:00 19,4 14,6 15,2 19,0 22,7 17,8 5 3 14 7 SE 1021,8 40 0 0,0
07.08.2020 01:00:00 19,5 13,7 16,4 19,8 23,1 17,8 8 4 11 6 ESE 1021,9 52 0 0,0
07.08.2020 00:00:00 20,3 12,9 15,7 20,8 23,4 17,8 6 4 14 7 ESE 1021,6 67 0 0,0
06.08.2020 23:00:00 21,2 12,8 17,9 22,0 23,8 17,8 6 4 13 7 E 1021,2 56 0 0,0
06.08.2020 22:00:00 22,0 12,2 19,3 23,5 24,0 17,8 9 5 18 10 NE 1020,8 63 0 0,0
06.08.2020 21:00:00 23,9 11,6 22,2 25,6 24,1 17,8 12 7 23 12 NE 1020,0 55 37 0,0
06.08.2020 20:00:00 26,1 11,4 25,7 28,3 24,0 17,8 12 6 22 12 NE 1019,1 65 60 0,0
06.08.2020 19:00:00 27,6 10,3 28,2 31,0 23,7 17,8 5 3 22 12 NE 1018,7 56 60 0,0
06.08.2020 18:00:00 27,6 9,5 29,4 32,9 23,3 17,8 9 5 25 14 NE 1018,7 75 60 0,0
06.08.2020 17:00:00 27,5 8,9 30,2 34,8 22,6 17,8 12 6 23 13 NE 1019,0 52 60 0,0
06.08.2020 16:00:00 27,5 8,8 31,2 35,8 21,9 17,8 11 6 22 12 NNE 1019,1 62 60 0,0
06.08.2020 15:00:00 26,4 8,9 29,9 35,6 21,1 17,8 7 4 22 12 NNW 1019,7 60 60 0,0
06.08.2020 14:00:00 25,8 8,3 30,1 34,6 20,3 17,9 8 5 18 10 NNW 1020,1 52 60 0,0
06.08.2020 13:00:00 25,6 8,2 29,6 33,0 19,6 17,9 9 5 19 10 NNE 1020,5 54 60 0,0
06.08.2020 12:00:00 24,0 8,3 27,3 30,5 19,0 17,9 11 6 19 10 ENE 1020,9 41 60 0,0
06.08.2020 11:00:00 23,4 8,4 27,0 27,3 18,6 17,9 8 4 16 9 N 1021,1 70 60 0,0
06.08.2020 10:00:00 22,7 9,6 25,7 24,0 18,5 17,9 5 3 11 6 N 1021,1 58 60 0,0
06.08.2020 09:00:00 20,8 9,3 23,4 19,8 18,5 17,9 4 2 12 6 SE 1021,3 55 60 0,0
06.08.2020 08:00:00 18,5 9,9 18,1 16,2 18,7 17,9 5 3 12 6 SE 1021,0 65 60 0,0
06.08.2020 07:00:00 15,9 8,9 15,5 14,0 19,1 17,9 8 5 14 8 SSE 1021,4 68 43 0,0
06.08.2020 06:00:00 14,4 8,7 12,3 13,5 19,4 17,9 11 6 14 8 SE 1021,3 60 0 0,0
06.08.2020 05:00:00 16,1 8,9 12,6 14,0 19,8 17,9 8 4 9 5 S 1020,9 72 0 0,0
06.08.2020 04:00:00 15,6 8,5 10,6 14,5 20,1 17,9 3 2 5 3 W 1020,7 57 0 0,0
06.08.2020 03:00:00 16,7 8,8 11,4 15,3 20,5 17,9 4 2 14 7 S 1020,4 71 0 0,0
06.08.2020 02:00:00 17,3 8,5 14,7 16,1 20,9 17,9 8 4 15 8 S 1020,2 64 0 0,0
06.08.2020 01:00:00 18,2 8,2 15,8 16,9 21,3 17,9 6 3 14 8 S 1020,0 69 0 0,0
06.08.2020 00:00:00 17,7 7,5 15,1 17,7 21,7 18,0 6 3 15 8 SSE 1020,0 57 0 0,0
05.08.2020 23:00:00 17,9 8,1 13,7 18,9 22,1 18,0 8 4 14 8 ESE 1019,7 64 0 0,0
05.08.2020 22:00:00 19,8 8,0 15,9 20,7 22,3 18,0 6 3 12 7 S 1019,0 2,8 0 0,0
05.08.2020 21:00:00 21,4 6,5 18,2 23,1 22,4 18,0 7 4 13 7 E 1018,4 66 41 0,0
05.08.2020 20:00:00 23,3 5,4 22,8 26,0 22,3 18,0 8 4 16 9 NE 1017,6 72 60 0,0
05.08.2020 19:00:00 24,3 5,4 25,1 28,6 22,0 18,0 8 4 16 9 NE 1017,1 59 60 0,0
05.08.2020 18:00:00 24,8 5,0 27,0 30,5 21,4 18,1 8 4 21 11 NNE 1017,1 65 60 0,0
05.08.2020 17:00:00 25,0 6,0 28,1 32,5 20,8 18,1 5 3 19 10 NNE 1017,3 75 60 0,0
05.08.2020 16:00:00 24,7 5,7 28,1 33,5 20,0 18,1 6 4 24 13 S 1017,5 67 60 0,0
05.08.2020 15:00:00 23,5 4,9 27,5 33,2 19,2 18,1 7 4 20 11 E 1018,1 75 60 0,0
05.08.2020 14:00:00 23,6 5,8 29,2 32,7 18,3 18,1 6 3 22 12 S 1018,4 75 59 0,0
05.08.2020 13:00:00 22,3 6,0 26,4 30,5 17,5 18,1 5 3 15 8 N 1018,8 67 56 0,0
05.08.2020 12:00:00 22,5 6,4 26,7 28,8 16,9 18,2 4 2 14 7 SE 1018,9 63 60 0,0
05.08.2020 11:00:00 22,4 7,4 25,0 24,5 16,4 18,2 3 2 19 10 NW 1018,8 56 55 0,0
05.08.2020 10:00:00 20,0 8,0 23,4 20,3 16,2 18,2 8 4 16 9 SSW 1019,2 60 59 0,0
05.08.2020 09:00:00 17,9 10,2 21,2 17,0 16,1 18,2 6 4 10 5 SW 1019,6 59 60 0,0
05.08.2020 08:00:00 15,4 9,8 15,4 13,3 16,3 18,2 8 4 14 7 S 1020,0 55 60 0,0
05.08.2020 07:00:00 13,0 8,7 12,8 11,0 16,5 18,2 11 6 15 8 S 1020,0 69 44 0,0
05.08.2020 06:00:00 12,0 8,5 9,2 10,2 16,7 18,2 9 5 15 8 S 1020,0 58 0 0,0
05.08.2020 05:00:00 12,1 8,5 9,0 10,3 17,0 18,2 8 5 13 7 S 1019,7 59 0 0,0
05.08.2020 04:00:00 11,6 8,4 10,0 10,8 17,3 18,2 11 6 12 6 S 1019,4 60 0 0,0
05.08.2020 03:00:00 12,0 8,6 10,0 11,2 17,6 18,3 10 5 13 7 S 1019,1 59 0 0,0
05.08.2020 02:00:00 12,2 8,7 10,2 11,7 17,9 18,3 12 6 13 7 S 1018,9 50 0 0,0
05.08.2020 01:00:00 13,1 8,7 11,6 12,4 18,2 18,3 11 6 13 7 SSW 1018,7 66 0 0,0
05.08.2020 00:00:00 13,6 9,1 11,5 13,1 18,4 18,3 7 4 9 5 SW 1018,4 55 0 0,0
04.08.2020 23:00:00 14,9 9,4 12,4 14,0 18,6 18,3 6 4 10 5 SSW 1018,1 56 0 0,0
04.08.2020 22:00:00 16,0 9,8 13,4 15,2 18,8 18,3 5 3 6 4 SW 1017,8 45 0 0,0
04.08.2020 21:00:00 17,3 9,0 14,6 17,2 18,8 18,3 0 0 6 3 N 1016,9 59 16 0,0
04.08.2020 20:00:00 18,6 9,9 19,0 18,6 18,7 18,4 4 2 8 4 SSW 1016,1 71 32 0,0
04.08.2020 19:00:00 18,5 9,6 18,2 19,3 18,7 18,4 0 0 8 4 N 1015,5 52 0 0,0
04.08.2020 18:00:00 17,8 10,0 18,4 19,1 18,5 18,4 2 1 24 13 ENE 1015,3 70 0 0,0
04.08.2020 17:00:00 18,1 9,2 18,5 20,7 18,3 18,4 13 7 26 14 WNW 1015,1 41 0 0,0
04.08.2020 16:00:00 19,2 8,4 20,6 21,1 18,1 18,4 19 11 30 16 NNW 1014,8 67 0 0,0
04.08.2020 15:00:00 18,7 7,4 20,1 19,6 17,9 18,4 19 11 35 19 NNW 1014,4 62 0 0,0
04.08.2020 14:00:00 17,9 8,7 19,4 18,1 17,9 18,4 16 9 26 14 NNW 1014,2 60 0 0,0
04.08.2020 13:00:00 16,2 9,2 16,7 16,6 17,9 18,4 14 8 27 15 NNW 1014,2 68 0 0,0
04.08.2020 12:00:00 15,6 9,4 16,1 16,7 17,8 18,4 15 8 23 12 N 1013,9 65 0 0,0
04.08.2020 11:00:00 14,8 10,1 15,5 15,9 17,9 18,4 13 7 22 12 N 1013,9 64 0 0,0
04.08.2020 10:00:00 14,3 9,7 14,5 15,2 17,9 18,4 16 8 20 11 N 1013,3 64 0 0,0
04.08.2020 09:00:00 13,9 9,8 14,3 15,2 18,0 18,4 10 6 15 8 N 1013,1 66 0 0,0
04.08.2020 08:00:00 13,3 10,9 13,7 14,3 18,2 18,4 6 4 10 5 NNW 1012,9 43 0 0,0
04.08.2020 07:00:00 12,6 10,7 12,5 13,7 18,4 18,4 4 2 14 7 N 1012,6 43 0 0,0
04.08.2020 06:00:00 12,3 10,4 11,8 13,4 18,6 18,5 5 3 12 6 N 1011,9 46 0 0,0
04.08.2020 05:00:00 12,6 9,8 12,1 13,6 18,8 18,5 11 6 17 9 N 1011,3 57 0 0,0
04.08.2020 04:00:00 12,8 9,4 12,2 13,7 19,1 18,5 8 4 14 7 N 1011,1 62 0 0,0
04.08.2020 03:00:00 13,6 9,1 12,7 13,8 19,4 18,5 8 5 17 9 NNE 1011,0 65 0 0,0
04.08.2020 02:00:00 13,7 9,1 12,3 14,1 19,7 18,5 10 5 13 7 N 1011,0 61 0 0,0
04.08.2020 01:00:00 13,6 9,4 12,2 14,4 20,0 18,5 8 4 13 7 N 1011,1 60 0 0,0
04.08.2020 00:00:00 14,0 9,7 12,5 14,9 20,3 18,5 8 4 14 8 N 1010,9 57 0 0,0
03.08.2020 23:00:00 15,1 9,6 13,7 15,5 20,6 18,5 12 7 16 9 NNE 1010,9 61 0 0,0
03.08.2020 22:00:00 16,1 10,2 15,0 16,6 20,8 18,5 9 5 17 9 N 1010,5 74 0 0,0
03.08.2020 21:00:00 16,5 10,1 15,6 17,2 21,0 18,5 10 6 23 12 N 1010,1 63 0 0,0
03.08.2020 20:00:00 18,0 9,3 17,2 18,7 21,1 18,5 18 10 27 15 N 1009,7 60 2 0,0
03.08.2020 19:00:00 19,6 8,7 20,4 21,2 21,1 18,5 18 10 27 14 N 1009,7 63 23 0,0
03.08.2020 18:00:00 19,2 8,8 19,3 22,2 21,0 18,5 16 8 27 15 N 1009,9 73 46 0,0
03.08.2020 17:00:00 19,8 9,6 21,5 23,0 20,8 18,5 13 7 23 12 N 1009,9 47 42 0,0
03.08.2020 16:00:00 19,0 9,6 20,9 23,1 20,5 18,5 14 7 27 15 N 1010,7 58 41 0,0
03.08.2020 15:00:00 18,0 9,2 21,4 23,6 20,3 18,5 16 9 27 15 NNW 1011,2 63 44 0,0
03.08.2020 14:00:00 17,7 11,9 21,0 22,8 20,1 18,5 14 8 26 14 NNW 1011,6 48 23 0,0
03.08.2020 13:00:00 16,8 11,0 19,8 21,3 20,0 18,5 14 7 26 14 NNW 1012,1 46 11 0,0
03.08.2020 12:00:00 15,8 11,2 18,1 19,5 20,0 18,5 16 9 24 13 NNW 1012,4 53 0 0,0
03.08.2020 11:00:00 15,1 11,5 16,5 18,6 20,1 18,4 18 10 26 14 NNW 1012,6 63 0 0,0
03.08.2020 10:00:00 14,5 12,7 15,5 17,2 20,2 18,4 14 8 21 11 NNW 1012,7 31 0 0,0
03.08.2020 09:00:00 14,6 13,9 14,9 16,8 20,4 18,4 12 7 23 12 N 1012,9 13 0 0,0
03.08.2020 08:00:00 14,6 14,5 14,8 16,6 20,6 18,4 14 8 24 13 N 1012,7 2,2 0 0,0
03.08.2020 07:00:00 15,2 15,0 15,3 16,9 20,8 18,4 11 6 14 8 N 1012,3 3,1 0 0,0
03.08.2020 06:00:00 15,2 15,0 15,0 17,0 21,1 18,4 12 6 18 10 NNW 1012,3 3,5 0 0,0
03.08.2020 05:00:00 15,6 15,2 15,6 17,3 21,3 18,4 14 8 21 11 N 1012,3 6 0 0,0
03.08.2020 04:00:00 16,3 16,2 16,5 18,0 21,5 18,4 9 5 15 8 N 1012,3 2,5 0 0,0
03.08.2020 03:00:00 16,3 16,2 16,4 18,1 21,7 18,4 6 4 10 6 N 1012,4 6 0 0,0
03.08.2020 02:00:00 16,0 15,7 16,1 18,2 21,9 18,4 8 5 14 7 NE 1013,0 5 0 1,9
03.08.2020 01:00:00 17,0 16,9 17,1 18,7 22,2 18,4 9 5 11 6 N 1012,5 1,6 0 0,4
03.08.2020 00:00:00 17,0 16,7 17,2 18,9 22,4 18,3 7 4 12 6 N 1012,7 4,1 0 0,0
02.08.2020 23:00:00 17,1 16,9 17,2 19,1 22,7 18,3 10 6 13 7 N 1012,9 4,6 0 0,0
02.08.2020 22:00:00 17,6 17,4 17,7 19,6 23,0 18,3 8 4 13 7 N 1013,1 2,8 0 0,0
02.08.2020 21:00:00 17,7 17,2 17,4 19,6 23,3 18,3 4 2 14 8 NNW 1012,6 13 0 0,1
02.08.2020 20:00:00 17,6 17,2 17,4 20,1 23,7 18,3 11 6 17 9 ESE 1011,8 15 0 0,9
02.08.2020 19:00:00 18,3 17,5 18,0 21,0 24,0 18,3 7 4 15 8 ENE 1012,7 14 0 0,6
02.08.2020 18:00:00 18,9 17,2 18,9 22,2 24,2 18,3 12 6 18 10 N 1013,3 28 0 0,1
02.08.2020 17:00:00 19,1 16,8 19,1 22,6 24,4 18,3 16 9 23 12 N 1012,5 36 0 1,5
02.08.2020 16:00:00 20,7 15,8 20,3 24,7 24,5 18,3 14 7 22 12 NW 1012,0 57 0 3,3
02.08.2020 15:00:00 23,6 14,0 24,5 27,9 24,3 18,2 11 6 28 15 NNE 1011,0 56 0 0,0
02.08.2020 14:00:00 23,6 13,3 26,3 30,7 23,9 18,2 14 7 23 12 NNE 1011,9 48 2 0,0
02.08.2020 13:00:00 24,5 13,9 27,9 32,5 23,5 18,2 17 9 33 18 WNW 1012,0 56 34 0,0
02.08.2020 12:00:00 25,3 14,1 29,8 32,5 23,0 18,2 21 11 32 18 NW 1011,6 45 58 0,0
02.08.2020 11:00:00 27,1 12,8 31,4 29,4 22,7 18,2 16 8 29 15 NW 1010,8 63 37 0,0
02.08.2020 10:00:00 26,0 11,2 29,9 27,9 22,6 18,2 12 7 18 10 NW 1010,2 67 60 0,0
02.08.2020 09:00:00 25,2 10,2 28,3 24,4 22,7 18,2 4 2 11 6 S 1010,4 56 60 0,0
02.08.2020 08:00:00 23,2 10,5 23,7 21,2 22,9 18,1 8 5 13 7 SSW 1011,2 50 31 0,0
02.08.2020 07:00:00 22,4 9,5 21,2 20,1 23,2 18,1 4 2 13 7 SE 1011,2 65 2 0,0
02.08.2020 06:00:00 21,1 9,7 19,9 19,5 23,5 18,1 8 4 21 11 ESE 1011,2 71 0 0,0
02.08.2020 05:00:00 21,1 10,0 19,8 20,0 23,9 18,1 8 5 19 10 ESE 1011,5 62 0 0,0
02.08.2020 04:00:00 21,0 11,6 19,8 20,7 24,3 18,1 10 5 17 9 ESE 1012,0 55 0 0,0
02.08.2020 03:00:00 21,6 11,8 20,4 21,2 24,6 18,1 10 6 19 10 ESE 1012,1 67 0 0,1
02.08.2020 02:00:00 20,4 12,9 17,9 22,5 24,9 18,1 10 5 14 8 ESE 1013,0 32 0 0,1
02.08.2020 01:00:00 22,9 9,7 21,8 23,7 25,3 18,1 8 4 14 7 WNW 1013,2 56 0 0,0
02.08.2020 00:00:00 23,7 9,9 21,3 24,4 25,6 18,1 3 2 9 5 SE 1012,6 65 0 0,0
01.08.2020 23:00:00 24,1 8,6 21,7 24,8 26,0 18,1 7 4 12 7 E 1012,3 59 0 0,0
01.08.2020 22:00:00 25,0 8,3 19,2 26,0 26,3 18,1 6 4 16 9 E 1012,3 56 0 0,0
01.08.2020 21:00:00 26,0 8,5 23,4 28,2 26,4 18,1 11 6 18 10 ENE 1011,9 62 27 0,0
01.08.2020 20:00:00 28,3 9,1 27,7 31,2 26,3 18,1 15 8 21 12 NE 1011,5 69 60 0,0
01.08.2020 19:00:00 30,1 9,6 30,7 34,4 26,1 18,0 9 5 18 10 NNE 1011,4 64 59 0,0
01.08.2020 18:00:00 30,5 9,5 31,7 36,7 25,6 18,0 11 6 19 11 NNE 1011,7 75 60 0,0
01.08.2020 17:00:00 31,3 9,9 34,7 38,4 25,0 18,0 9 5 25 13 N 1011,9 35 60 0,0
01.08.2020 16:00:00 31,3 10,3 35,1 39,2 24,3 18,0 7 4 26 14 NE 1012,2 57 60 0,0
01.08.2020 15:00:00 30,7 9,6 35,1 38,9 23,5 18,0 14 8 26 14 N 1012,6 53 60 0,0
01.08.2020 14:00:00 29,2 10,5 33,9 37,7 22,7 18,0 5 3 26 14 SW 1013,1 54 60 0,0
01.08.2020 13:00:00 28,4 10,4 32,7 35,3 22,0 18,0 10 5 20 11 WNW 1013,8 53 60 0,0
01.08.2020 12:00:00 27,5 10,6 31,6 32,6 21,5 18,0 8 5 16 9 N 1014,1 75 60 0,0
01.08.2020 11:00:00 25,8 10,0 30,7 29,5 21,1 18,0 5 3 15 8 E 1014,5 70 60 0,0
01.08.2020 10:00:00 24,6 10,7 28,3 25,8 21,0 18,0 10 5 15 8 NE 1014,5 48 60 0,0
01.08.2020 09:00:00 23,0 11,3 26,3 22,2 21,0 17,9 4 2 9 5 ESE 1015,1 61 60 0,0
01.08.2020 08:00:00 20,2 10,4 20,8 18,9 21,3 17,9 2 1 6 3 SSW 1015,9 75 60 0,0
01.08.2020 07:00:00 18,2 10,8 18,1 17,1 21,6 17,9 4 2 9 5 SSE 1016,0 59 47 0,0
01.08.2020 06:00:00 17,2 10,5 14,2 16,7 22,0 17,9 6 4 9 5 S 1016,1 59 2 0,0
01.08.2020 05:00:00 17,0 10,5 14,4 17,2 22,3 17,9 4 2 9 5 SE 1016,2 64 0 0,0
01.08.2020 04:00:00 17,4 10,7 12,8 17,8 22,7 17,9 4 2 11 6 SSE 1016,7 61 0 0,0
01.08.2020 03:00:00 16,9 10,4 12,9 18,4 23,1 17,9 4 2 11 6 E 1017,2 63 0 0,0
01.08.2020 02:00:00 18,1 10,7 14,5 19,2 23,6 17,9 8 5 11 6 ESE 1017,3 61 0 0,0

tt = temperature
td = dewpoint
tt 5cm = temperature 5cm
tt -5cm = temperature -5cm
tt -20cm = temperature -20cm
tt -100cm = temperature -100cm
ff = wind speed
fx = gusts
dd = wind direction
ppp = reduced air pressure
vv = visibility
sd = sunshine duration
rr = precipitation

Next stations